GW1596 Weather Reports


time (UTC)temp
F
wind
direction
speed
knots
gust
knots
rain 1hr
in
rain 24hr
in
rain mn
in
humidity
%
barometer
mb
20260510143926 66 272 1.7 5.2 0.00 0.00 0.00 69 1017.9
20260510143335 66 251 2.6 3.5 0.00 0.00 0.00 69 1017.2
20260510142713 66 255 3.5 6.1 0.00 0.00 0.00 67 1016.9
20260510142128 65 236 3.5 3.5 0.00 0.00 0.00 68 1016.9
20260510140929 66 244 3.5 6.1 0.00 0.00 0.00 70 1016.9
20260510135715 65 241 5.2 6.1 0.00 0.00 0.00 70 1016.9
20260510135116 65 257 6.1 7.8 0.00 0.00 0.00 68 1016.9
20260510134511 64 251 2.6 3.5 0.00 0.00 0.00 73 1016.9
20260510133348 64 248 1.7 7.0 0.00 0.00 0.00 72 1016.5
20260510132749 64 231 1.7 1.7 0.00 0.00 0.00 75 1016.5
20260510131517 62 232 1.7 2.6 0.00 0.00 0.00 77 1016.9
20260510130920 62 250 5.2 6.1 0.00 0.00 0.00 75 1016.5
20260510130331 62 238 3.5 3.5 0.00 0.00 0.00 79 1016.9
20260510125751 62 222 0.9 2.6 0.00 0.00 0.00 80 1016.9
20260510125144 62 104 1.7 0.9 0.00 0.00 0.00 82 1016.5
20260510123308 60 102 0.9 0.9 0.00 0.00 0.00 86 1016.5
20260510122730 58 104 0.0 0.0 0.00 0.00 0.00 89 1016.5
20260510122134 57 104 0.0 0.9 0.00 0.00 0.00 89 1016.5
20260510121511 58 104 0.0 0.9 0.00 0.00 0.00 88 1016.5
20260510120949 57 104 0.0 0.0 0.00 0.00 0.00 89 1016.5
20260510115743 54 104 0.0 0.0 0.00 0.00 0.00 93 1016.2
20260510114518 52 105 0.0 0.0 0.00 0.00 0.00 97 1015.9
20260510113914 52 105 0.0 0.0 0.00 0.00 0.00 98 1015.9
20260510112710 50 104 0.0 0.0 0.00 0.00 0.00 99 1015.9
20260510112131 50 104 0.9 0.9 0.00 0.00 0.00 99 1015.9
20260510111532 49 106 0.9 0.9 0.00 0.00 0.00 99 1015.5
20260510110933 48 109 0.0 0.0 0.00 0.00 0.00 98 1015.5
20260510110312 48 109 0.0 0.0 0.00 0.00 0.00 98 1015.2
20260510105747 48 109 0.9 0.0 0.00 0.00 0.00 98 1015.2
20260510105143 47 109 0.0 0.0 0.00 0.00 0.00 98 1014.9
20260510103935 47 109 0.9 1.7 0.00 0.00 0.00 98 1014.9
20260510103324 47 109 0.0 0.9 0.00 0.00 0.00 98 1014.9
20260510102717 48 109 0.0 0.0 0.00 0.00 0.00 98 1014.9
20260510102142 48 109 0.0 0.0 0.00 0.00 0.00 98 1014.9
20260510101511 48 109 0.9 0.9 0.00 0.00 0.00 98 1014.9
20260510100351 48 109 0.9 0.9 0.00 0.00 0.00 98 1014.5
20260510095710 48 109 0.0 0.0 0.00 0.00 0.00 98 1014.5
20260510095139 48 110 0.0 0.0 0.00 0.00 0.00 98 1014.2
20260510094539 48 109 0.0 0.0 0.00 0.00 0.00 98 1013.8
20260510093908 48 109 0.0 0.9 0.00 0.00 0.00 98 1014.2
20260510093327 48 109 0.9 0.9 0.00 0.00 0.00 98 1014.2
20260510092725 48 109 0.0 0.9 0.00 0.00 0.00 98 1014.2
20260510092129 48 109 0.0 0.0 0.00 0.00 0.00 98 1014.2
20260510091537 48 109 0.0 0.0 0.00 0.00 0.00 98 1013.8
20260510090909 48 110 0.0 0.0 0.00 0.00 0.00 98 1014.2
20260510090341 48 110 0.0 0.0 0.00 0.00 0.00 98 1014.2
20260510085716 48 109 0.0 0.0 0.00 0.00 0.00 98 1014.2
20260510083948 49 109 0.0 0.9 0.00 0.00 0.00 98 1013.8
20260510083352 49 109 0.0 0.0 0.00 0.00 0.00 98 1013.8
20260510082744 49 109 0.0 0.0 0.00 0.00 0.00 98 1013.8
20260510082119 49 109 0.9 0.9 0.00 0.00 0.00 98 1013.5
20260510081549 49 109 0.0 0.0 0.00 0.00 0.00 97 1013.8
20260510080918 50 108 0.9 2.6 0.00 0.00 0.00 97 1013.5
20260510080327 50 144 0.9 0.9 0.00 0.00 0.00 97 1013.5
20260510075750 50 162 1.7 1.7 0.00 0.00 0.00 97 1013.5
20260510074542 50 132 0.0 1.7 0.00 0.00 0.00 97 1013.5
20260510073942 50 126 0.9 2.6 0.00 0.00 0.00 97 1013.5
20260510073347 50 133 2.6 2.6 0.00 0.00 0.00 97 1013.5
20260510072734 50 118 0.0 0.9 0.00 0.00 0.00 97 1013.5
20260510072126 50 117 1.7 1.7 0.00 0.00 0.00 97 1013.5
20260510071546 50 118 0.0 0.9 0.00 0.00 0.00 97 1013.2
20260510070925 51 118 0.0 0.9 0.00 0.00 0.00 97 1013.5
20260510070312 50 107 1.7 1.7 0.00 0.00 0.00 97 1013.2
20260510065734 50 127 0.9 2.6 0.00 0.00 0.00 97 1013.2
20260510065141 51 163 0.0 0.9 0.00 0.00 0.00 96 1013.5
20260510063923 51 100 0.9 1.7 0.00 0.00 0.00 97 1013.5
20260510063330 51 100 0.9 1.7 0.00 0.00 0.00 96 1013.5
20260510062709 51 121 0.0 0.9 0.00 0.00 0.00 96 1013.5
20260510062146 52 120 0.0 1.7 0.00 0.00 0.00 96 1013.5
20260510061534 51 107 0.9 1.7 0.00 0.00 0.00 96 1013.5
20260510060949 51 123 0.0 1.7 0.00 0.00 0.00 96 1013.5
20260510060341 51 123 0.0 1.7 0.00 0.00 0.00 95 1013.5
20260510055725 52 123 0.0 0.9 0.00 0.00 0.00 96 1013.5
20260510055118 51 125 2.6 2.6 0.00 0.00 0.00 96 1013.5
20260510054538 52 139 0.9 0.9 0.00 0.00 0.00 95 1013.8
20260510053314 52 212 1.7 2.6 0.00 0.00 0.00 95 1013.8
20260510052149 52 212 0.9 1.7 0.00 0.00 0.00 96 1013.8
20260510051548 52 212 2.6 2.6 0.00 0.00 0.00 96 1013.8
20260510050912 52 212 1.7 1.7 0.00 0.00 0.00 96 1014.2
20260510050332 52 212 0.9 0.9 0.00 0.00 0.00 96 1013.8
20260510045721 52 212 0.9 1.7 0.00 0.00 0.00 96 1013.8
20260510045110 52 212 0.9 0.9 0.00 0.00 0.00 95 1013.8
20260510043931 53 212 0.9 0.9 0.00 0.00 0.00 96 1013.8
20260510043338 52 212 0.0 0.9 0.00 0.00 0.00 96 1013.8
20260510042711 52 213 0.9 0.9 0.00 0.00 0.00 96 1013.8
20260510042145 53 213 0.9 0.9 0.00 0.00 0.00 97 1013.8
20260510041533 52 213 0.0 0.9 0.00 0.00 0.00 97 1013.8
20260510040924 52 213 0.9 0.9 0.00 0.00 0.00 97 1013.8
20260510040343 51 213 0.9 1.7 0.00 0.00 0.00 97 1013.5
20260510035747 51 213 0.0 0.9 0.00 0.00 0.02 97 1013.5
20260510035123 51 213 0.0 0.0 0.00 0.00 0.02 97 1013.8
20260510034541 51 213 0.0 0.0 0.00 0.00 0.02 97 1013.8
20260510033910 51 212 0.0 0.0 0.00 0.00 0.02 96 1013.5
20260510033316 52 213 0.0 0.9 0.00 0.00 0.02 96 1013.5
20260510032752 52 212 0.0 0.0 0.00 0.00 0.02 96 1013.5
20260510032147 52 212 0.0 0.0 0.00 0.00 0.02 96 1013.2
20260510031524 52 212 0.0 0.0 0.00 0.00 0.02 96 1013.2
20260510030919 52 213 0.0 0.0 0.00 0.00 0.02 95 1013.2
20260510030328 52 212 0.0 0.0 0.00 0.00 0.02 95 1013.2
20260510025732 52 212 0.0 0.0 0.00 0.00 0.02 95 1013.2
20260510025123 53 212 0.0 0.0 0.00 0.00 0.02 95 1013.2
20260510023940 53 212 0.9 1.7 0.00 0.00 0.02 95 1013.2
20260510022739 53 213 0.0 0.0 0.00 0.00 0.02 94 1013.2
20260510021510 54 213 0.0 0.0 0.00 0.00 0.02 94 1012.8
20260510020952 54 213 0.0 0.0 0.00 0.00 0.02 93 1012.8
20260510015740 55 213 0.0 0.0 0.00 0.00 0.02 92 1012.5
20260510015143 55 213 0.0 0.0 0.00 0.00 0.02 91 1012.8
20260510014511 55 213 0.0 0.0 0.00 0.00 0.02 91 1012.5
20260510013946 55 213 0.0 0.0 0.00 0.00 0.02 90 1012.5
20260510012725 56 213 0.0 0.0 0.00 0.00 0.02 89 1012.1
20260510012131 57 213 0.0 0.0 0.00 0.00 0.02 88 1012.1
20260510011556 57 213 0.9 0.9 0.00 0.00 0.02 86 1012.1
20260510010951 58 213 0.0 0.0 0.00 0.00 0.02 84 1011.8
20260510010348 58 213 0.0 0.9 0.00 0.00 0.02 83 1011.8
20260510005143 59 213 0.0 0.0 0.00 0.00 0.02 79 1011.5
20260510004550 60 213 0.9 0.9 0.00 0.00 0.02 79 1011.5
20260510003307 62 214 0.0 0.0 0.00 0.00 0.02 76 1011.5
20260510002716 63 214 0.0 0.0 0.00 0.00 0.02 71 1011.1
20260510001511 64 214 0.0 0.9 0.00 0.00 0.02 67 1011.1
20260510000943 65 214 0.9 1.7 0.00 0.00 0.02 65 1011.1
20260510000349 66 206 0.9 0.9 0.00 0.00 0.02 63 1011.1
20260509235710 66 233 1.7 1.7 0.00 0.00 0.02 62 1011.1
20260509235126 66 229 1.7 2.6 0.00 0.00 0.02 63 1011.1
20260509234543 68 233 2.6 3.5 0.00 0.00 0.02 59 1010.8
20260509233949 68 242 3.5 5.2 0.00 0.00 0.02 58 1011.1
20260509233339 68 237 2.6 3.5 0.00 0.00 0.02 58 1011.1
20260509232130 69 236 5.2 6.1 0.00 0.00 0.02 56 1011.1
20260509231509 69 233 3.5 7.0 0.00 0.00 0.02 56 1010.8
20260509230951 70 243 4.3 9.6 0.00 0.00 0.02 55 1011.1
20260509230332 70 228 4.3 7.8 0.00 0.00 0.02 54 1010.8
20260509225146 71 241 7.8 8.7 0.00 0.00 0.02 53 1011.1
20260509224535 71 259 3.5 6.1 0.00 0.00 0.02 51 1011.1
20260509223928 71 237 6.1 7.8 0.00 0.00 0.02 50 1011.1
20260509223343 71 254 7.0 8.7 0.00 0.00 0.02 51 1011.1
20260509222130 72 258 5.2 7.0 0.00 0.00 0.02 51 1011.1
20260509220917 72 255 2.6 3.5 0.00 0.00 0.02 51 1011.5
20260509220325 71 247 4.3 7.0 0.00 0.00 0.02 50 1011.1
20260509215723 71 222 5.2 6.1 0.00 0.00 0.02 51 1011.5
20260509215134 71 260 5.2 6.1 0.00 0.00 0.02 52 1011.5
20260509214520 72 256 4.3 7.0 0.00 0.00 0.02 51 1011.1
20260509213334 69 259 6.1 8.7 0.00 0.00 0.02 52 1011.5
20260509212738 70 235 5.2 8.7 0.00 0.00 0.02 52 1011.1
20260509212145 72 255 7.0 8.7 0.00 0.00 0.02 53 1011.1
20260509211542 70 256 5.2 7.8 0.00 0.00 0.02 54 1011.5
20260509210931 70 216 1.7 2.6 0.00 0.00 0.02 55 1011.5
20260509210318 71 250 7.0 9.6 0.00 0.00 0.02 55 1011.5
20260509205747 72 243 7.0 7.8 0.00 0.00 0.02 56 1011.5
20260509205134 71 238 7.0 7.8 0.00 0.00 0.02 53 1011.5
20260509204537 70 230 3.5 3.5 0.00 0.00 0.02 58 1011.5
20260509203950 68 333 1.7 5.2 0.00 0.00 0.02 63 1011.5
20260509203321 69 260 6.1 7.8 0.00 0.00 0.02 54 1011.5
20260509202753 68 254 6.1 7.8 0.00 0.00 0.02 56 1011.1
20260509202126 68 235 5.2 6.1 0.00 0.00 0.02 58 1011.5
20260509201532 69 252 5.2 7.0 0.00 0.00 0.02 58 1011.5
20260509200939 68 260 4.3 7.8 0.00 0.00 0.02 58 1011.8
20260509200309 68 249 6.1 8.7 0.00 0.00 0.02 56 1011.8
20260509195125 69 254 5.2 7.8 0.00 0.00 0.02 57 1012.1
20260509193915 70 237 5.2 6.1 0.00 0.00 0.02 56 1012.1
20260509193337 70 265 7.8 8.7 0.00 0.00 0.02 59 1012.1
20260509192748 70 246 5.2 7.0 0.00 0.00 0.02 55 1012.1
20260509191527 68 254 5.2 7.0 0.00 0.00 0.02 58 1012.1
20260509190313 67 252 6.1 7.8 0.00 0.00 0.02 62 1012.1
20260509185750 67 245 5.2 6.1 0.00 0.00 0.02 59 1011.8
20260509185114 66 262 0.9 0.9 0.00 0.00 0.02 62 1012.1
20260509184531 66 236 6.1 7.0 0.00 0.00 0.02 61 1012.1
20260509183936 65 247 3.5 6.1 0.00 0.00 0.02 65 1011.8
20260509183343 64 244 3.5 7.0 0.00 0.00 0.02 66 1012.1
20260509182727 64 225 3.5 8.7 0.00 0.00 0.02 65 1012.1
20260509182153 64 258 4.3 5.2 0.00 0.00 0.02 63 1012.1
20260509181515 64 231 3.5 5.2 0.00 0.00 0.02 66 1012.1
20260509180941 64 248 3.5 6.1 0.00 0.00 0.02 61 1012.1
20260509180315 64 233 3.5 3.5 0.00 0.00 0.02 67 1012.1
20260509175737 64 235 5.2 7.0 0.00 0.00 0.02 66 1012.1
20260509175152 64 257 2.6 3.5 0.00 0.00 0.02 63 1012.1
20260509174526 63 215 1.7 6.1 0.00 0.00 0.02 67 1012.1
20260509173310 61 249 5.2 7.0 0.00 0.00 0.02 71 1012.1
20260509172726 60 221 1.7 2.6 0.00 0.00 0.02 75 1012.5
20260509171510 61 330 2.6 3.5 0.00 0.00 0.02 73 1012.5
20260509170921 61 217 1.7 5.2 0.00 0.00 0.02 76 1012.5
20260509170323 60 193 0.9 0.9 0.00 0.00 0.02 78 1012.5
20260509165719 59 208 0.9 1.7 0.00 0.00 0.02 83 1012.5
20260509165132 60 120 0.0 0.0 0.00 0.00 0.02 83 1012.8
20260509164539 59 112 0.0 0.9 0.00 0.00 0.02 79 1013.2
20260509163934 59 111 0.0 0.0 0.00 0.00 0.02 84 1012.8
20260509162115 59 112 0.0 1.7 0.00 0.00 0.02 82 1012.8
20260509161540 59 111 0.0 0.0 0.00 0.00 0.02 82 1013.2
20260509160930 59 111 0.0 0.9 0.00 0.00 0.02 81 1013.2
20260509160345 58 109 0.9 0.9 0.00 0.00 0.02 83 1012.8
20260509155716 58 109 0.9 0.9 0.00 0.00 0.02 83 1012.8
20260509154540 58 112 0.9 0.9 0.00 0.00 0.02 84 1012.5
20260509153940 58 112 0.9 0.9 0.00 0.00 0.02 84 1012.5
20260509153324 59 112 0.9 0.9 0.00 0.00 0.02 83 1012.8
20260509152127 58 213 0.0 0.0 0.00 0.00 0.02 82 1012.8
20260509150915 58 210 0.9 0.9 0.00 0.00 0.02 86 1012.8
20260509150315 58 213 1.7 1.7 0.00 0.00 0.02 83 1012.8
20260509145740 58 206 0.9 0.9 0.00 0.00 0.02 86 1012.5
20260509145127 58 160 0.0 0.9 0.00 0.00 0.02 87 1012.1
20260509144508 58 160 0.0 0.0 0.00 0.00 0.02 87 1012.5